Location: Munderkingen
(48.2395°N, 9.6433°E)
Time: 19:54:05
(UTC+02:00)

ISS - Pass Details

Date: 21 March 2017
Orbit: 399 x 409 km, 51.6° (Epoch: 29 March)

Event Time Altitude Azimuth Distance (km) Brightness Sun altitude
Exits shadow 04:36:31 59° 218° (SW) 477 -3.8 -18.0°
Maximum altitude 04:36:37 60° 208° (SSW) 475 -3.8 -18.0°
Drops below altitude 10° 04:39:52 10° 128° (SE) 1,472 -0.6 -17.5°
Sets 04:41:58 0° 125° (SE) 2,331 0.5 -17.2°
